Time,TemperatureF,DewpointF,PressureIn,WindDirection,WindDirectionDegrees,WindSpeedMPH,WindSpeedGustMPH,Humidity,HourlyPrecipIn,Conditions,Clouds,dailyrainin,SoftwareType,DateUTC
2013-09-13 00:00:00,60.9,52.5,30.00,North,351,5.9,10.6,74,0.00,,OVC041,0.03,VWS V14.01,2013-09-13 04:00:00,
2013-09-13 00:01:00,59.3,50.2,30.01,North,349,4.7,5.9,72,0.00,,CLR,0.00,VWS V14.01,2013-09-13 04:01:00,
2013-09-13 00:02:00,59.3,50.2,30.01,NNW,348,5.9,5.9,72,0.00,,CLR,0.00,VWS V14.01,2013-09-13 04:02:00,
2013-09-13 00:05:00,59.2,50.5,30.02,North,360,4.7,7.1,73,0.00,,CLR,0.00,VWS V14.01,2013-09-13 04:05:00,
2013-09-13 00:10:00,59.0,50.3,30.02,NNW,343,4.7,4.7,73,0.00,,CLR,0.00,VWS V14.01,2013-09-13 04:10:00,
2013-09-13 00:15:00,58.9,50.5,30.02,North,360,4.7,8.3,74,0.00,,CLR,0.00,VWS V14.01,2013-09-13 04:15:00,
2013-09-13 00:20:00,58.7,50.3,30.02,North,355,4.7,4.7,74,0.00,,CLR,0.00,VWS V14.01,2013-09-13 04:20:00,
2013-09-13 00:25:00,58.6,50.6,30.02,NNW,343,7.1,8.3,75,0.00,,CLR,0.00,VWS V14.01,2013-09-13 04:25:00,
2013-09-13 00:30:00,58.4,50.4,30.02,NNW,345,7.1,7.1,75,0.00,,CLR,0.00,VWS V14.01,2013-09-13 04:30:00,
2013-09-13 00:35:00,58.3,50.7,30.02,North,355,9.4,9.4,76,0.00,,CLR,0.00,VWS V14.01,2013-09-13 04:35:00,
2013-09-13 00:40:00,58.1,50.5,30.02,North,5,7.1,7.1,76,0.00,,CLR,0.00,VWS V14.01,2013-09-13 04:40:00,
2013-09-13 00:45:00,58.0,50.4,30.02,North,5,5.9,9.4,76,0.00,,CLR,0.00,VWS V14.01,2013-09-13 04:45:00,
2013-09-13 00:50:00,57.8,50.2,30.02,North,360,7.1,9.4,76,0.00,,CLR,0.00,VWS V14.01,2013-09-13 04:50:00,
2013-09-13 00:55:00,57.6,50.0,30.02,NNW,348,8.3,10.6,76,0.00,,CLR,0.00,VWS V14.01,2013-09-13 04:55:00,
2013-09-13 01:00:00,57.5,49.9,30.02,North,5,5.9,5.9,76,0.00,,CLR,0.00,VWS V14.01,2013-09-13 05:00:00,
2013-09-13 01:05:00,57.3,49.7,30.02,North,355,5.9,10.6,76,0.00,,CLR,0.00,VWS V14.01,2013-09-13 05:05:00,
2013-09-13 01:10:00,57.2,49.6,30.02,North,355,3.5,5.9,76,0.00,,CLR,0.00,VWS V14.01,2013-09-13 05:10:00,
2013-09-13 01:15:00,56.9,49.3,30.03,NNW,346,8.3,9.4,76,0.00,,CLR,0.00,VWS V14.01,2013-09-13 05:15:00,
2013-09-13 01:20:00,56.7,48.8,30.03,North,355,4.7,5.9,75,0.00,,CLR,0.00,VWS V14.01,2013-09-13 05:20:00,
2013-09-13 01:25:00,56.6,48.7,30.03,North,360,5.9,8.3,75,0.00,,CLR,0.00,VWS V14.01,2013-09-13 05:25:00,
2013-09-13 01:30:00,56.5,48.6,30.03,North,360,4.7,4.7,75,0.00,,CLR,0.00,VWS V14.01,2013-09-13 05:30:00,
2013-09-13 01:35:00,56.3,48.4,30.03,NNW,348,3.5,9.4,75,0.00,,CLR,0.00,VWS V14.01,2013-09-13 05:35:00,
2013-09-13 01:40:00,56.2,48.7,30.03,North,5,7.1,7.1,76,0.00,,CLR,0.00,VWS V14.01,2013-09-13 05:40:00,
2013-09-13 01:45:00,56.0,48.5,30.03,North,11,7.1,9.4,76,0.00,,CLR,0.00,VWS V14.01,2013-09-13 05:45:00,
2013-09-13 01:50:00,55.9,48.4,30.03,North,360,4.7,4.7,76,0.00,,CLR,0.00,VWS V14.01,2013-09-13 05:50:00,
2013-09-13 01:55:00,55.7,48.2,30.03,North,360,4.7,7.1,76,0.00,,CLR,0.00,VWS V14.01,2013-09-13 05:55:00,
2013-09-13 02:00:00,55.6,48.1,30.03,North,355,5.9,5.9,76,0.00,,CLR,0.00,VWS V14.01,2013-09-13 06:00:00,
2013-09-13 02:05:00,55.4,48.2,30.03,North,355,3.5,9.4,77,0.00,,CLR,0.00,VWS V14.01,2013-09-13 06:05:00,
2013-09-13 02:10:00,55.4,48.2,30.03,North,355,3.5,3.5,77,0.00,,CLR,0.00,VWS V14.01,2013-09-13 06:10:00,
2013-09-13 02:15:00,55.1,48.0,30.03,North,360,2.4,7.1,77,0.00,,CLR,0.00,VWS V14.01,2013-09-13 06:15:00,
2013-09-13 02:20:00,55.0,47.8,30.03,North,360,0.0,0.0,77,0.00,,CLR,0.00,VWS V14.01,2013-09-13 06:20:00,
2013-09-13 02:25:00,54.8,47.7,30.04,North,360,2.4,4.7,77,0.00,,CLR,0.00,VWS V14.01,2013-09-13 06:25:00,
2013-09-13 02:30:00,54.7,47.9,30.04,North,360,3.5,4.7,78,0.00,,CLR,0.00,VWS V14.01,2013-09-13 06:30:00,
2013-09-13 02:35:00,54.5,47.7,30.04,NNW,347,4.7,5.9,78,0.00,,CLR,0.00,VWS V14.01,2013-09-13 06:35:00,
2013-09-13 02:40:00,54.2,47.4,30.04,North,5,2.4,2.4,78,0.00,,CLR,0.00,VWS V14.01,2013-09-13 06:40:00,
2013-09-13 02:45:00,54.1,47.7,30.04,North,5,1.2,2.4,79,0.00,,FEW040,0.00,VWS V14.01,2013-09-13 06:45:00,
2013-09-13 02:50:00,54.1,47.7,30.04,North,5,0.0,0.0,79,0.00,,FEW040,0.00,VWS V14.01,2013-09-13 06:50:00,
2013-09-13 02:55:00,53.9,47.5,30.04,North,5,1.2,4.7,79,0.00,,FEW040,0.00,VWS V14.01,2013-09-13 06:55:00,
2013-09-13 03:00:00,53.8,47.7,30.04,North,5,2.4,4.7,80,0.00,,FEW040,0.00,VWS V14.01,2013-09-13 07:00:00,
2013-09-13 03:05:00,53.6,47.5,30.04,North,355,3.5,5.9,80,0.00,,FEW040,0.00,VWS V14.01,2013-09-13 07:05:00,
2013-09-13 03:10:00,53.5,47.4,30.04,North,355,0.0,0.0,80,0.00,,FEW040,0.00,VWS V14.01,2013-09-13 07:10:00,
2013-09-13 03:15:00,53.6,47.5,30.04,North,355,1.2,5.9,80,0.00,,FEW040,0.00,VWS V14.01,2013-09-13 07:15:00,
2013-09-13 03:20:00,53.6,47.5,30.04,North,355,5.9,5.9,80,0.00,,FEW040,0.00,VWS V14.01,2013-09-13 07:20:00,
2013-09-13 03:25:00,53.6,47.5,30.04,North,360,4.7,7.1,80,0.00,,FEW040,0.00,VWS V14.01,2013-09-13 07:25:00,
2013-09-13 03:30:00,53.6,47.5,30.04,North,355,4.7,5.9,80,0.00,,FEW040,0.00,VWS V14.01,2013-09-13 07:30:00,
2013-09-13 03:35:00,53.6,47.5,30.04,North,360,3.5,7.1,80,0.00,,FEW040,0.00,VWS V14.01,2013-09-13 07:35:00,
2013-09-13 03:40:00,53.5,47.4,30.04,NNE,30,1.2,7.1,80,0.00,,BKN055,0.00,VWS V14.01,2013-09-13 07:40:00,
2013-09-13 03:45:00,53.5,47.1,30.05,North,360,4.7,7.1,79,0.00,,BKN055,0.00,VWS V14.01,2013-09-13 07:45:00,
2013-09-13 03:50:00,53.3,46.9,30.05,North,355,4.7,5.9,79,0.00,,BKN055,0.00,VWS V14.01,2013-09-13 07:50:00,
2013-09-13 03:55:00,53.3,46.9,30.05,North,5,3.5,8.3,79,0.00,,BKN055,0.00,VWS V14.01,2013-09-13 07:55:00,
2013-09-13 04:00:00,53.2,46.8,30.05,North,5,4.7,4.7,79,0.00,,BKN055,0.00,VWS V14.01,2013-09-13 08:00:00,
2013-09-13 04:05:00,53.1,46.7,30.05,North,360,2.4,5.9,79,0.00,,BKN055,0.00,VWS V14.01,2013-09-13 08:05:00,
2013-09-13 04:10:00,53.5,47.4,30.04,North,355,0.0,5.9,80,0.00,,OVC041,0.00,VWS V14.01,2013-09-13 08:10:00,
2013-09-13 04:11:00,52.9,46.8,30.05,North,360,1.2,3.5,80,0.00,,BKN055,0.00,VWS V14.01,2013-09-13 08:11:00,
2013-09-13 04:16:00,52.8,46.7,30.05,North,360,3.5,4.7,80,0.00,,BKN055,0.00,VWS V14.01,2013-09-13 08:16:00,
2013-09-13 04:20:00,53.6,47.5,30.04,North,5,4.7,7.1,80,0.00,,OVC041,0.00,VWS V14.01,2013-09-13 08:20:00,
2013-09-13 04:21:00,52.6,46.5,30.05,NNW,348,4.7,5.9,80,0.00,,BKN055,0.00,VWS V14.01,2013-09-13 08:21:00,
2013-09-13 04:26:00,52.5,46.5,30.05,NNW,348,3.5,5.9,80,0.00,,BKN055,0.00,VWS V14.01,2013-09-13 08:26:00,
2013-09-13 04:30:00,53.6,47.5,30.04,North,355,5.9,7.1,80,0.00,,OVC041,0.00,VWS V14.01,2013-09-13 08:30:00,
2013-09-13 04:31:00,52.3,46.6,30.05,North,349,1.2,3.5,81,0.00,,BKN055,0.00,VWS V14.01,2013-09-13 08:31:00,
2013-09-13 04:36:00,52.2,46.5,30.05,North,349,0.0,3.5,81,0.00,,BKN055,0.00,VWS V14.01,2013-09-13 08:36:00,
2013-09-13 04:40:00,53.6,47.5,30.04,North,355,4.7,7.1,80,0.00,,OVC041,0.00,VWS V14.01,2013-09-13 08:40:00,
2013-09-13 04:41:00,52.0,46.3,30.05,North,349,0.0,3.5,81,0.00,,SCT055,0.00,VWS V14.01,2013-09-13 08:41:00,
2013-09-13 04:46:00,51.9,46.2,30.05,North,349,0.0,3.5,81,0.00,,SCT055,0.00,VWS V14.01,2013-09-13 08:46:00,
2013-09-13 04:50:00,53.3,46.9,30.05,North,355,3.5,7.1,79,0.00,,OVC041,0.00,VWS V14.01,2013-09-13 08:50:00,
2013-09-13 04:51:00,51.7,46.3,30.05,North,349,0.0,0.0,82,0.00,,SCT055,0.00,VWS V14.01,2013-09-13 08:51:00,
2013-09-13 04:56:00,51.6,46.2,30.05,North,349,2.4,2.4,82,0.00,,SCT055,0.00,VWS V14.01,2013-09-13 08:56:00,
2013-09-13 05:00:00,53.2,46.8,30.05,North,5,2.4,8.3,79,0.00,,OVC041,0.00,VWS V14.01,2013-09-13 09:00:00,
2013-09-13 05:01:00,51.3,45.9,30.05,NNW,328,2.4,3.5,82,0.00,,SCT055,0.00,VWS V14.01,2013-09-13 09:01:00,
2013-09-13 05:06:00,51.1,46.1,30.05,NNW,346,3.5,4.7,83,0.00,,SCT055,0.00,VWS V14.01,2013-09-13 09:06:00,
2013-09-13 05:10:00,52.9,46.8,30.05,North,360,3.5,5.9,80,0.00,,OVC041,0.00,VWS V14.01,2013-09-13 09:10:00,
2013-09-13 05:11:00,51.0,46.0,30.05,North,349,5.9,5.9,83,0.00,,SCT055,0.00,VWS V14.01,2013-09-13 09:11:00,
2013-09-13 05:16:00,50.8,45.8,30.05,North,360,3.5,7.1,83,0.00,,SCT055,0.00,VWS V14.01,2013-09-13 09:16:00,
2013-09-13 05:20:00,52.6,46.5,30.05,North,360,2.4,4.7,80,0.00,,OVC041,0.00,VWS V14.01,2013-09-13 09:20:00,
2013-09-13 05:22:00,50.7,45.7,30.05,NNW,348,5.9,7.1,83,0.00,,SCT055,0.00,VWS V14.01,2013-09-13 09:22:00,
2013-09-13 05:27:00,50.7,45.7,30.05,North,355,3.5,7.1,83,0.00,,SCT055,0.00,VWS V14.01,2013-09-13 09:27:00,
2013-09-13 05:30:00,52.3,46.2,30.05,NNW,348,2.4,5.9,80,0.00,,OVC041,0.00,VWS V14.01,2013-09-13 09:30:00,
2013-09-13 05:32:00,50.5,45.5,30.05,North,355,3.5,5.9,83,0.00,,SCT055,0.00,VWS V14.01,2013-09-13 09:32:00,
2013-09-13 05:37:00,50.4,45.4,30.05,North,355,2.4,5.9,83,0.00,,SCT055,0.00,VWS V14.01,2013-09-13 09:37:00,
2013-09-13 05:40:00,52.0,46.3,30.05,North,349,0.0,3.5,81,0.00,,OVC041,0.00,VWS V14.01,2013-09-13 09:40:00,
2013-09-13 05:42:00,50.2,45.2,30.05,North,355,3.5,4.7,83,0.00,,BKN049,0.00,VWS V14.01,2013-09-13 09:42:00,
2013-09-13 05:47:00,49.9,44.9,30.05,North,355,0.0,4.7,83,0.00,,BKN049,0.00,VWS V14.01,2013-09-13 09:47:00,
2013-09-13 05:50:00,51.7,46.3,30.05,North,349,0.0,3.5,82,0.00,,OVC041,0.00,VWS V14.01,2013-09-13 09:50:00,
2013-09-13 05:52:00,49.9,44.9,30.06,North,355,1.2,4.7,83,0.00,,BKN049,0.00,VWS V14.01,2013-09-13 09:52:00,
2013-09-13 05:57:00,49.8,44.8,30.06,North,355,2.4,4.7,83,0.00,,BKN049,0.00,VWS V14.01,2013-09-13 09:57:00,
2013-09-13 06:00:00,51.4,46.0,30.05,North,349,0.0,4.7,82,0.00,,OVC041,0.00,VWS V14.01,2013-09-13 10:00:00,
2013-09-13 06:02:00,49.6,44.6,30.06,North,355,2.4,4.7,83,0.00,,BKN049,0.00,VWS V14.01,2013-09-13 10:02:00,
2013-09-13 06:07:00,49.5,44.5,30.06,North,355,3.5,5.9,83,0.00,,BKN049,0.00,VWS V14.01,2013-09-13 10:07:00,
2013-09-13 06:10:00,51.1,46.1,30.05,North,349,3.5,9.4,83,0.00,,OVC041,0.00,VWS V14.01,2013-09-13 10:10:00,
2013-09-13 06:12:00,49.5,44.5,30.06,North,355,4.7,5.9,83,0.00,,BKN049,0.00,VWS V14.01,2013-09-13 10:12:00,
2013-09-13 06:17:00,49.4,44.4,30.06,North,355,3.5,5.9,83,0.00,,BKN049,0.00,VWS V14.01,2013-09-13 10:17:00,
2013-09-13 06:20:00,50.8,45.8,30.05,North,360,4.7,7.1,83,0.00,,OVC041,0.00,VWS V14.01,2013-09-13 10:20:00,
2013-09-13 06:22:00,49.4,44.4,30.06,North,355,3.5,5.9,83,0.00,,BKN049,0.00,VWS V14.01,2013-09-13 10:22:00,
2013-09-13 06:27:00,49.2,44.2,30.06,North,355,3.5,5.9,83,0.00,,BKN049,0.00,VWS V14.01,2013-09-13 10:27:00,
2013-09-13 06:30:00,50.5,45.5,30.05,North,355,3.5,7.1,83,0.00,,OVC041,0.00,VWS V14.01,2013-09-13 10:30:00,
2013-09-13 06:33:00,49.2,44.2,30.06,North,355,3.5,5.9,83,0.00,,BKN049,0.00,VWS V14.01,2013-09-13 10:33:00,
2013-09-13 06:38:00,49.2,44.5,30.06,North,355,4.7,7.1,84,0.00,,BKN049,0.00,VWS V14.01,2013-09-13 10:38:00,
2013-09-13 06:40:00,50.2,45.2,30.05,North,355,3.5,5.9,83,0.00,,OVC041,0.00,VWS V14.01,2013-09-13 10:40:00,
2013-09-13 06:43:00,49.4,44.7,30.06,North,350,4.7,5.9,84,0.00,,SCT055,0.00,VWS V14.01,2013-09-13 10:43:00,
2013-09-13 06:48:00,49.5,44.5,30.06,North,360,2.4,5.9,83,0.00,,SCT055,0.00,VWS V14.01,2013-09-13 10:48:00,
2013-09-13 06:50:00,49.9,44.9,30.06,North,355,2.4,4.7,83,0.00,,OVC041,0.00,VWS V14.01,2013-09-13 10:50:00,
2013-09-13 06:53:00,49.8,44.8,30.07,North,360,3.5,5.9,83,0.00,,SCT055,0.00,VWS V14.01,2013-09-13 10:53:00,
2013-09-13 06:58:00,49.9,44.9,30.07,North,360,4.7,8.3,83,0.00,,SCT055,0.00,VWS V14.01,2013-09-13 10:58:00,
2013-09-13 07:00:00,49.6,44.6,30.06,North,355,2.4,4.7,83,0.00,,OVC041,0.00,VWS V14.01,2013-09-13 11:00:00,
2013-09-13 07:03:00,50.2,45.2,30.07,North,360,9.4,9.4,83,0.00,,SCT055,0.00,VWS V14.01,2013-09-13 11:03:00,
2013-09-13 07:08:00,50.4,45.1,30.07,North,355,7.1,9.4,82,0.00,,SCT055,0.00,VWS V14.01,2013-09-13 11:08:00,
2013-09-13 07:10:00,49.5,44.5,30.06,North,355,2.4,5.9,83,0.00,,OVC041,0.00,VWS V14.01,2013-09-13 11:10:00,
2013-09-13 07:13:00,50.7,45.0,30.07,NNW,346,4.7,8.3,81,0.00,,SCT055,0.00,VWS V14.01,2013-09-13 11:13:00,
2013-09-13 07:18:00,50.8,44.8,30.07,NNW,346,4.7,8.3,80,0.00,,SCT055,0.00,VWS V14.01,2013-09-13 11:18:00,
2013-09-13 07:20:00,49.4,44.4,30.06,North,355,2.4,5.9,83,0.00,,OVC041,0.00,VWS V14.01,2013-09-13 11:20:00,
2013-09-13 07:23:00,51.0,45.0,30.07,North,355,4.7,7.1,80,0.00,,SCT055,0.00,VWS V14.01,2013-09-13 11:23:00,
2013-09-13 07:28:00,51.1,45.1,30.08,North,355,5.9,8.3,80,0.00,,SCT055,0.00,VWS V14.01,2013-09-13 11:28:00,
2013-09-13 07:30:00,49.2,44.2,30.06,North,360,4.7,7.1,83,0.00,,OVC041,0.00,VWS V14.01,2013-09-13 11:30:00,
2013-09-13 07:33:00,51.3,45.0,30.08,North,11,3.5,7.1,79,0.00,,SCT055,0.00,VWS V14.01,2013-09-13 11:33:00,
2013-09-13 07:38:00,51.3,45.0,30.08,North,5,3.5,7.1,79,0.00,,SCT055,0.00,VWS V14.01,2013-09-13 11:38:00,
2013-09-13 07:40:00,49.2,44.5,30.06,North,350,5.9,7.1,84,0.00,,OVC041,0.00,VWS V14.01,2013-09-13 11:40:00,
2013-09-13 07:43:00,51.4,45.0,30.08,North,350,5.9,5.9,79,0.00,,OVC055,0.00,VWS V14.01,2013-09-13 11:43:00,
2013-09-13 07:49:00,51.6,45.2,30.08,North,5,4.7,8.3,79,0.00,,OVC055,0.00,VWS V14.01,2013-09-13 11:49:00,
2013-09-13 07:50:00,49.6,44.6,30.07,NNW,347,5.9,7.1,83,0.00,,OVC041,0.00,VWS V14.01,2013-09-13 11:50:00,
2013-09-13 07:54:00,51.9,45.5,30.08,North,11,5.9,7.1,79,0.00,,OVC055,0.00,VWS V14.01,2013-09-13 11:54:00,
2013-09-13 07:59:00,52.0,45.3,30.08,North,355,5.9,9.4,78,0.00,,OVC055,0.00,VWS V14.01,2013-09-13 11:59:00,
2013-09-13 08:00:00,50.1,45.1,30.07,North,355,3.5,8.3,83,0.00,,OVC041,0.00,VWS V14.01,2013-09-13 12:00:00,
2013-09-13 08:04:00,52.3,45.6,30.08,North,5,4.7,8.3,78,0.00,,OVC055,0.00,VWS V14.01,2013-09-13 12:04:00,
2013-09-13 08:09:00,52.6,45.5,30.09,North,5,5.9,8.3,77,0.00,,OVC055,0.00,VWS V14.01,2013-09-13 12:09:00,
2013-09-13 08:10:00,50.5,44.8,30.07,NNW,340,4.7,9.4,81,0.00,,OVC041,0.00,VWS V14.01,2013-09-13 12:10:00,
2013-09-13 08:14:00,52.8,45.7,30.09,North,351,5.9,7.1,77,0.00,,OVC055,0.00,VWS V14.01,2013-09-13 12:14:00,
2013-09-13 08:19:00,53.1,45.7,30.09,NNW,347,4.7,8.3,76,0.00,,OVC055,0.00,VWS V14.01,2013-09-13 12:19:00,
2013-09-13 08:20:00,50.8,44.8,30.07,North,360,4.7,8.3,80,0.00,,OVC041,0.00,VWS V14.01,2013-09-13 12:20:00,
2013-09-13 08:24:00,53.2,45.8,30.09,NNE,15,4.7,5.9,76,0.00,,OVC055,0.00,VWS V14.01,2013-09-13 12:24:00,
2013-09-13 08:29:00,53.3,45.5,30.09,NNW,346,5.9,10.6,75,0.00,,OVC055,0.00,VWS V14.01,2013-09-13 12:29:00,
2013-09-13 08:30:00,51.1,45.1,30.08,North,360,5.9,8.3,80,0.00,,OVC041,0.00,VWS V14.01,2013-09-13 12:30:00,
2013-09-13 08:34:00,53.5,45.7,30.09,North,5,8.3,10.6,75,0.00,,OVC055,0.00,VWS V14.01,2013-09-13 12:34:00,
2013-09-13 08:39:00,53.5,45.7,30.09,North,360,8.3,11.8,75,0.00,,OVC055,0.00,VWS V14.01,2013-09-13 12:39:00,
2013-09-13 08:40:00,51.3,44.9,30.08,North,5,4.7,7.1,79,0.00,,OVC041,0.00,VWS V14.01,2013-09-13 12:40:00,
2013-09-13 08:44:00,53.6,45.8,30.09,North,5,4.7,7.1,75,0.00,,OVC055,0.00,VWS V14.01,2013-09-13 12:44:00,
2013-09-13 08:49:00,53.8,46.0,30.09,NNW,337,8.3,11.8,75,0.00,,OVC055,0.00,VWS V14.01,2013-09-13 12:49:00,
2013-09-13 08:50:00,51.6,45.2,30.08,North,5,4.7,8.3,79,0.00,,OVC041,0.00,VWS V14.01,2013-09-13 12:50:00,
2013-09-13 08:55:00,53.9,45.7,30.09,North,360,5.9,13.0,74,0.00,,OVC050,0.00,VWS V14.01,2013-09-13 12:55:00,
2013-09-13 09:00:00,54.1,45.9,30.09,NNW,344,8.3,13.0,74,0.00,,OVC050,0.00,VWS V14.01,2013-09-13 13:00:00,
2013-09-13 09:05:00,54.2,46.0,30.09,NNW,348,10.6,11.8,74,0.00,,OVC050,0.00,VWS V14.01,2013-09-13 13:05:00,
2013-09-13 09:10:00,54.5,45.9,30.10,North,355,9.4,9.4,73,0.00,,OVC050,0.00,VWS V14.01,2013-09-13 13:10:00,
2013-09-13 09:15:00,54.7,46.1,30.10,NNW,347,5.9,16.5,73,0.00,,OVC050,0.00,VWS V14.01,2013-09-13 13:15:00,
2013-09-13 09:20:00,55.0,46.0,30.09,North,360,9.4,9.4,72,0.00,,OVC050,0.00,VWS V14.01,2013-09-13 13:20:00,
2013-09-13 09:25:00,55.1,46.1,30.10,NNW,346,4.7,11.8,72,0.00,,OVC050,0.00,VWS V14.01,2013-09-13 13:25:00,
2013-09-13 09:30:00,55.4,46.0,30.10,NNE,13,2.4,3.5,71,0.00,,OVC050,0.00,VWS V14.01,2013-09-13 13:30:00,
2013-09-13 09:35:00,55.7,46.0,30.10,North,5,7.1,13.0,70,0.00,,OVC050,0.00,VWS V14.01,2013-09-13 13:35:00,
2013-09-13 09:40:00,56.0,45.9,30.10,North,355,7.1,14.2,69,0.00,,BKN050,0.00,VWS V14.01,2013-09-13 13:40:00,
2013-09-13 09:45:00,56.2,46.1,30.10,North,5,8.3,14.2,69,0.00,,BKN050,0.00,VWS V14.01,2013-09-13 13:45:00,
2013-09-13 09:50:00,56.3,46.5,30.10,NNW,346,8.3,9.4,70,0.00,,BKN050,0.00,VWS V14.01,2013-09-13 13:50:00,
2013-09-13 09:55:00,56.6,46.4,30.10,NNW,348,11.8,14.2,69,0.00,,BKN050,0.00,VWS V14.01,2013-09-13 13:55:00,
2013-09-13 10:00:00,56.9,46.3,30.10,North,5,4.7,9.4,68,0.00,,BKN050,0.00,VWS V14.01,2013-09-13 14:00:00,
2013-09-13 10:06:00,57.3,46.3,30.10,NE,42,9.4,14.2,67,0.00,,BKN050,0.00,VWS V14.01,2013-09-13 14:06:00,
2013-09-13 10:10:00,54.5,45.9,30.10,NNW,344,7.1,13.0,73,0.00,,OVC041,0.00,VWS V14.01,2013-09-13 14:10:00,
2013-09-13 10:11:00,57.6,46.2,30.10,North,360,8.3,10.6,66,0.00,,BKN050,0.00,VWS V14.01,2013-09-13 14:11:00,
2013-09-13 10:16:00,58.0,46.2,30.10,NNW,344,3.5,10.6,65,0.00,,BKN050,0.00,VWS V14.01,2013-09-13 14:16:00,
2013-09-13 10:20:00,55.0,46.0,30.09,North,360,4.7,16.5,72,0.00,,OVC041,0.00,VWS V14.01,2013-09-13 14:20:00,
2013-09-13 10:21:00,58.4,47.0,30.10,NNW,341,7.1,9.4,66,0.00,,BKN050,0.00,VWS V14.01,2013-09-13 14:21:00,
2013-09-13 10:26:00,58.6,45.9,30.11,North,9,10.6,10.6,63,0.00,,BKN050,0.00,VWS V14.01,2013-09-13 14:26:00,
2013-09-13 10:30:00,55.4,46.0,30.10,NNE,13,3.5,11.8,71,0.00,,OVC041,0.00,VWS V14.01,2013-09-13 14:30:00,
2013-09-13 10:31:00,58.7,46.0,30.11,NNW,346,10.6,10.6,63,0.00,,BKN050,0.00,VWS V14.01,2013-09-13 14:31:00,
2013-09-13 10:36:00,59.2,46.0,30.11,NNW,346,5.9,10.6,62,0.00,,BKN050,0.00,VWS V14.01,2013-09-13 14:36:00,
2013-09-13 10:40:00,56.0,45.9,30.10,North,350,8.3,14.2,69,0.00,,OVC041,0.00,VWS V14.01,2013-09-13 14:40:00,
2013-09-13 10:41:00,59.6,45.5,30.11,NNE,24,3.5,7.1,60,0.00,,FEW050,0.00,VWS V14.01,2013-09-13 14:41:00,
2013-09-13 10:46:00,60.2,46.1,30.11,North,5,10.6,11.8,60,0.00,,FEW050,0.00,VWS V14.01,2013-09-13 14:46:00,
2013-09-13 10:50:00,56.3,46.2,30.10,North,9,8.3,14.2,69,0.00,,OVC041,0.00,VWS V14.01,2013-09-13 14:50:00,
2013-09-13 10:51:00,60.1,45.1,30.12,North,351,7.1,13.0,58,0.00,,FEW050,0.00,VWS V14.01,2013-09-13 14:51:00,
2013-09-13 10:56:00,59.5,44.5,30.12,North,5,7.1,15.3,58,0.00,,FEW050,0.00,VWS V14.01,2013-09-13 14:56:00,
2013-09-13 11:00:00,56.9,46.3,30.10,North,9,8.3,14.2,68,0.00,,OVC041,0.00,VWS V14.01,2013-09-13 15:00:00,
2013-09-13 11:01:00,59.2,45.2,30.11,NNW,347,9.4,13.0,60,0.00,,FEW050,0.00,VWS V14.01,2013-09-13 15:01:00,
2013-09-13 11:06:00,59.3,45.2,30.11,NNW,344,7.1,13.0,60,0.00,,FEW050,0.00,VWS V14.01,2013-09-13 15:06:00,
2013-09-13 11:10:00,57.5,46.1,30.10,NNW,334,9.4,14.2,66,0.00,,OVC041,0.00,VWS V14.01,2013-09-13 15:10:00,
2013-09-13 11:12:00,59.6,45.1,30.12,North,5,9.4,9.4,59,0.00,,FEW050,0.00,VWS V14.01,2013-09-13 15:12:00,
2013-09-13 11:17:00,59.8,45.3,30.11,North,355,3.5,10.6,59,0.00,,FEW050,0.00,VWS V14.01,2013-09-13 15:17:00,
2013-09-13 11:20:00,58.3,46.0,30.10,North,9,5.9,10.6,64,0.00,,OVC041,0.00,VWS V14.01,2013-09-13 15:20:00,
2013-09-13 11:22:00,60.1,45.1,30.11,NNE,27,2.4,8.3,58,0.00,,FEW050,0.00,VWS V14.01,2013-09-13 15:22:00,
2013-09-13 11:27:00,60.4,45.4,30.11,NW,317,8.3,15.3,58,0.00,,FEW050,0.00,VWS V14.01,2013-09-13 15:27:00,
2013-09-13 11:30:00,58.7,45.6,30.11,NNW,345,8.3,17.7,62,0.00,,OVC041,0.00,VWS V14.01,2013-09-13 15:30:00,
2013-09-13 11:32:00,60.2,45.2,30.11,NNW,348,8.3,8.3,58,0.00,,FEW050,0.00,VWS V14.01,2013-09-13 15:32:00,
2013-09-13 11:37:00,60.1,45.1,30.12,North,11,7.1,10.6,58,0.00,,FEW050,0.00,VWS V14.01,2013-09-13 15:37:00,
2013-09-13 11:40:00,59.5,45.9,30.11,North,355,7.1,10.6,61,0.00,,OVC041,0.00,VWS V14.01,2013-09-13 15:40:00,
2013-09-13 11:42:00,60.1,44.6,30.12,North,360,8.3,13.0,57,0.00,,FEW037,0.00,VWS V14.01,2013-09-13 15:42:00,
2013-09-13 11:47:00,60.1,44.6,30.12,NNW,348,9.4,13.0,57,0.00,,FEW037,0.00,VWS V14.01,2013-09-13 15:47:00,
2013-09-13 11:50:00,60.2,45.2,30.12,North,9,8.3,16.5,58,0.00,,OVC041,0.00,VWS V14.01,2013-09-13 15:50:00,
2013-09-13 11:52:00,60.5,44.5,30.12,North,355,9.4,11.8,56,0.00,,FEW037,0.00,VWS V14.01,2013-09-13 15:52:00,
2013-09-13 11:57:00,61.0,44.5,30.12,North,5,8.3,15.3,55,0.00,,FEW037,0.00,VWS V14.01,2013-09-13 15:57:00,
2013-09-13 12:00:00,59.3,44.8,30.11,NNW,347,9.4,15.3,59,0.00,,OVC041,0.00,VWS V14.01,2013-09-13 16:00:00,
2013-09-13 12:02:00,61.0,44.5,30.12,NNW,342,13.0,13.0,55,0.00,,FEW037,0.00,VWS V14.01,2013-09-13 16:02:00,
2013-09-13 12:07:00,61.0,44.5,30.12,NNW,340,8.3,18.9,55,0.00,,FEW037,0.00,VWS V14.01,2013-09-13 16:07:00,
2013-09-13 12:10:00,59.6,45.1,30.12,NNW,346,8.3,13.0,59,0.00,,OVC041,0.00,VWS V14.01,2013-09-13 16:10:00,
2013-09-13 12:12:00,61.3,44.8,30.12,NE,35,5.9,7.1,55,0.00,,FEW037,0.00,VWS V14.01,2013-09-13 16:12:00,
2013-09-13 12:17:00,61.3,44.8,30.12,NNW,340,8.3,10.6,55,0.00,,FEW037,0.00,VWS V14.01,2013-09-13 16:17:00,
2013-09-13 12:20:00,59.9,45.4,30.11,North,360,5.9,10.6,59,0.00,,OVC041,0.00,VWS V14.01,2013-09-13 16:20:00,
2013-09-13 12:23:00,61.6,44.6,30.12,North,355,9.4,13.0,54,0.00,,FEW037,0.00,VWS V14.01,2013-09-13 16:23:00,
2013-09-13 12:28:00,61.6,44.6,30.12,North,350,4.7,13.0,54,0.00,,FEW037,0.00,VWS V14.01,2013-09-13 16:28:00,
2013-09-13 12:30:00,60.2,44.7,30.11,NNW,346,4.7,15.3,57,0.00,,OVC041,0.00,VWS V14.01,2013-09-13 16:30:00,
2013-09-13 12:33:00,61.6,44.1,30.11,North,360,4.7,10.6,53,0.00,,FEW037,0.00,VWS V14.01,2013-09-13 16:33:00,
2013-09-13 12:38:00,62.0,44.5,30.11,North,355,3.5,10.6,53,0.00,,FEW037,0.00,VWS V14.01,2013-09-13 16:38:00,
2013-09-13 12:40:00,60.1,45.1,30.12,North,350,8.3,10.6,58,0.00,,OVC041,0.00,VWS V14.01,2013-09-13 16:40:00,
2013-09-13 12:43:00,63.1,45.0,30.11,North,355,7.1,15.3,52,0.00,,OVC042,0.00,VWS V14.01,2013-09-13 16:43:00,
2013-09-13 12:48:00,64.0,44.7,30.11,NNW,335,7.1,15.3,49,0.00,,OVC042,0.00,VWS V14.01,2013-09-13 16:48:00,
2013-09-13 12:50:00,60.2,44.7,30.12,North,5,8.3,13.0,57,0.00,,OVC041,0.00,VWS V14.01,2013-09-13 16:50:00,
2013-09-13 12:53:00,64.8,44.9,30.11,WNW,302,9.4,9.4,48,0.00,,OVC042,0.00,VWS V14.01,2013-09-13 16:53:00,
2013-09-13 12:58:00,65.0,44.6,30.11,NNE,22,3.5,14.2,47,0.00,,OVC042,0.00,VWS V14.01,2013-09-13 16:58:00,
2013-09-13 13:00:00,61.0,44.5,30.12,North,11,8.3,15.3,55,0.00,,OVC041,0.00,VWS V14.01,2013-09-13 17:00:00,
2013-09-13 13:03:00,65.2,44.7,30.11,North,11,8.3,11.8,47,0.00,,OVC042,0.00,VWS V14.01,2013-09-13 17:03:00,
2013-09-13 13:08:00,65.3,44.3,30.11,NE,39,4.7,11.8,46,0.00,,OVC042,0.00,VWS V14.01,2013-09-13 17:08:00,
2013-09-13 13:10:00,61.2,44.7,30.12,North,355,5.9,18.9,55,0.00,,OVC041,0.00,VWS V14.01,2013-09-13 17:10:00,
2013-09-13 13:13:00,65.0,44.0,30.11,NW,304,3.5,11.8,46,0.00,,OVC042,0.00,VWS V14.01,2013-09-13 17:13:00,
2013-09-13 13:18:00,64.7,44.8,30.11,North,349,3.5,11.8,48,0.00,,OVC042,0.00,VWS V14.01,2013-09-13 17:18:00,
2013-09-13 13:20:00,61.5,45.0,30.12,North,360,7.1,10.6,55,0.00,,OVC041,0.00,VWS V14.01,2013-09-13 17:20:00,
2013-09-13 13:23:00,64.3,43.9,30.10,North,355,1.2,9.4,47,0.00,,OVC042,0.00,VWS V14.01,2013-09-13 17:23:00,
2013-09-13 13:29:00,64.2,43.3,30.10,NNE,15,3.5,13.0,46,0.00,,OVC042,0.00,VWS V14.01,2013-09-13 17:29:00,
2013-09-13 13:30:00,61.6,45.1,30.12,North,360,5.9,13.0,55,0.00,,OVC041,0.00,VWS V14.01,2013-09-13 17:30:00,
2013-09-13 13:34:00,64.2,43.8,30.10,NNW,348,3.5,11.8,47,0.00,,OVC042,0.00,VWS V14.01,2013-09-13 17:34:00,
2013-09-13 13:39:00,64.7,43.7,30.10,NW,317,7.1,11.8,46,0.00,,OVC042,0.00,VWS V14.01,2013-09-13 17:39:00,
2013-09-13 13:40:00,62.3,45.2,30.11,North,351,7.1,10.6,54,0.00,,OVC041,0.00,VWS V14.01,2013-09-13 17:40:00,
2013-09-13 13:44:00,65.2,43.0,30.10,NW,325,3.5,11.8,44,0.00,,BKN044,0.00,VWS V14.01,2013-09-13 17:44:00,
2013-09-13 13:49:00,66.0,43.2,30.10,North,360,5.9,11.8,43,0.00,,BKN044,0.00,VWS V14.01,2013-09-13 17:49:00,
2013-09-13 13:50:00,64.3,44.5,30.11,North,360,5.9,15.3,48,0.00,,OVC041,0.00,VWS V14.01,2013-09-13 17:50:00,
2013-09-13 13:54:00,66.4,43.5,30.10,North,360,4.7,14.2,43,0.00,,BKN044,0.00,VWS V14.01,2013-09-13 17:54:00,
2013-09-13 13:59:00,66.8,43.2,30.10,NE,40,1.2,14.2,42,0.00,,BKN044,0.00,VWS V14.01,2013-09-13 17:59:00,
2013-09-13 14:00:00,65.0,45.1,30.11,North,355,4.7,14.2,48,0.00,,OVC041,0.00,VWS V14.01,2013-09-13 18:00:00,
2013-09-13 14:04:00,67.1,43.5,30.09,North,5,5.9,5.9,42,0.00,,BKN044,0.00,VWS V14.01,2013-09-13 18:04:00,
2013-09-13 14:09:00,67.3,43.7,30.09,NNW,347,3.5,8.3,42,0.00,,BKN044,0.00,VWS V14.01,2013-09-13 18:09:00,
2013-09-13 14:10:00,65.2,44.2,30.11,NNE,32,5.9,11.8,46,0.00,,OVC041,0.00,VWS V14.01,2013-09-13 18:10:00,
2013-09-13 14:14:00,67.3,43.7,30.09,NNE,14,10.6,10.6,42,0.00,,BKN044,0.00,VWS V14.01,2013-09-13 18:14:00,
2013-09-13 14:19:00,67.3,42.4,30.09,NE,53,2.4,10.6,40,0.00,,BKN044,0.00,VWS V14.01,2013-09-13 18:19:00,
2013-09-13 14:20:00,64.7,44.8,30.11,NNW,343,3.5,11.8,48,0.00,,OVC041,0.00,VWS V14.01,2013-09-13 18:20:00,
2013-09-13 14:24:00,67.6,44.0,30.09,North,360,4.7,7.1,42,0.00,,BKN044,0.00,VWS V14.01,2013-09-13 18:24:00,
2013-09-13 14:29:00,67.9,43.6,30.09,NNW,343,4.7,9.4,41,0.00,,BKN044,0.00,VWS V14.01,2013-09-13 18:29:00,
2013-09-13 14:30:00,64.2,43.3,30.10,NNE,24,5.9,13.0,46,0.00,,OVC041,0.00,VWS V14.01,2013-09-13 18:30:00,
2013-09-13 14:34:00,67.8,43.5,30.09,WNW,298,5.9,9.4,41,0.00,,BKN044,0.00,VWS V14.01,2013-09-13 18:34:00,
2013-09-13 14:40:00,67.8,43.5,30.09,NNW,347,3.5,9.4,41,0.00,,BKN044,0.00,VWS V14.01,2013-09-13 18:40:00,
2013-09-13 14:45:00,67.9,42.3,30.09,North,350,9.4,9.4,39,0.00,,CLR,0.00,VWS V14.01,2013-09-13 18:45:00,
2013-09-13 14:50:00,68.1,42.5,30.09,NNW,342,4.7,4.7,39,0.00,,CLR,0.00,VWS V14.01,2013-09-13 18:50:00,
2013-09-13 14:55:00,68.3,43.3,30.08,North,5,1.2,8.3,40,0.00,,CLR,0.00,VWS V14.01,2013-09-13 18:55:00,
2013-09-13 15:00:00,68.3,43.3,30.08,North,360,13.0,13.0,40,0.00,,CLR,0.00,VWS V14.01,2013-09-13 19:00:00,
2013-09-13 15:05:00,68.3,42.7,30.08,NNW,342,4.7,13.0,39,0.00,,CLR,0.00,VWS V14.01,2013-09-13 19:05:00,
2013-09-13 15:10:00,68.3,43.3,30.08,NNW,329,4.7,5.9,40,0.00,,CLR,0.00,VWS V14.01,2013-09-13 19:10:00,
2013-09-13 15:15:00,68.6,42.9,30.08,North,355,11.8,14.2,39,0.00,,CLR,0.00,VWS V14.01,2013-09-13 19:15:00,
2013-09-13 15:20:00,68.4,42.8,30.08,North,5,10.6,11.8,39,0.00,,CLR,0.00,VWS V14.01,2013-09-13 19:20:00,
2013-09-13 15:25:00,68.4,42.8,30.08,North,10,5.9,13.0,39,0.00,,CLR,0.00,VWS V14.01,2013-09-13 19:25:00,
2013-09-13 15:30:00,68.4,42.1,30.08,North,5,3.5,3.5,38,0.00,,CLR,0.00,VWS V14.01,2013-09-13 19:30:00,
2013-09-13 15:35:00,68.4,42.1,30.08,North,5,9.4,15.3,38,0.00,,CLR,0.00,VWS V14.01,2013-09-13 19:35:00,
2013-09-13 15:40:00,68.4,41.4,30.08,NNW,346,9.4,10.6,37,0.00,,CLR,0.00,VWS V14.01,2013-09-13 19:40:00,
2013-09-13 15:45:00,68.3,42.0,30.09,North,9,0.0,11.8,38,0.00,,CLR,0.00,VWS V14.01,2013-09-13 19:45:00,
2013-09-13 15:50:00,68.1,42.5,30.08,NNW,342,3.5,10.6,39,0.00,,OVC041,0.00,VWS V14.01,2013-09-13 19:50:00,
2013-09-13 15:51:00,68.4,42.1,30.08,NNE,19,5.9,9.4,38,0.00,,CLR,0.00,VWS V14.01,2013-09-13 19:51:00,
2013-09-13 15:56:00,68.3,41.3,30.09,NNE,15,7.1,15.3,37,0.00,,CLR,0.00,VWS V14.01,2013-09-13 19:56:00,
2013-09-13 16:00:00,68.3,44.0,30.08,North,360,9.4,10.6,41,0.00,,OVC041,0.00,VWS V14.01,2013-09-13 20:00:00,
2013-09-13 16:01:00,68.1,41.8,30.08,North,355,8.3,10.6,38,0.00,,CLR,0.00,VWS V14.01,2013-09-13 20:01:00,
2013-09-13 16:06:00,68.1,41.8,30.08,WNW,300,5.9,14.2,38,0.00,,CLR,0.00,VWS V14.01,2013-09-13 20:06:00,
2013-09-13 16:10:00,68.3,43.3,30.08,NE,34,3.5,13.0,40,0.00,,OVC041,0.00,VWS V14.01,2013-09-13 20:10:00,
2013-09-13 16:11:00,68.4,41.4,30.08,North,5,7.1,8.3,37,0.00,,CLR,0.00,VWS V14.01,2013-09-13 20:11:00,
2013-09-13 16:16:00,68.6,41.6,30.08,North,360,7.1,8.3,37,0.00,,CLR,0.00,VWS V14.01,2013-09-13 20:16:00,
2013-09-13 16:20:00,68.4,42.8,30.08,North,355,10.6,14.2,39,0.00,,OVC041,0.00,VWS V14.01,2013-09-13 20:20:00,
2013-09-13 16:21:00,68.6,40.9,30.08,NNW,347,9.4,10.6,36,0.00,,CLR,0.00,VWS V14.01,2013-09-13 20:21:00,
2013-09-13 16:26:00,68.4,41.4,30.08,North,5,5.9,10.6,37,0.00,,CLR,0.00,VWS V14.01,2013-09-13 20:26:00,
2013-09-13 16:30:00,68.4,42.1,30.08,North,5,1.2,13.0,38,0.00,,OVC041,0.00,VWS V14.01,2013-09-13 20:30:00,
2013-09-13 16:31:00,68.3,39.9,30.08,North,351,4.7,9.4,35,0.00,,CLR,0.00,VWS V14.01,2013-09-13 20:31:00,
2013-09-13 16:36:00,68.1,39.7,30.08,NNW,348,8.3,14.2,35,0.00,,CLR,0.00,VWS V14.01,2013-09-13 20:36:00,
2013-09-13 16:40:00,68.4,41.4,30.09,North,355,9.4,15.3,37,0.00,,OVC041,0.00,VWS V14.01,2013-09-13 20:40:00,
2013-09-13 16:41:00,67.9,41.0,30.08,North,355,8.3,10.6,37,0.00,,CLR,0.00,VWS V14.01,2013-09-13 20:41:00,
2013-09-13 16:46:00,67.6,41.4,30.08,NNW,340,8.3,13.0,38,0.00,,CLR,0.00,VWS V14.01,2013-09-13 20:46:00,
2013-09-13 16:50:00,68.4,42.1,30.08,North,11,4.7,13.0,38,0.00,,OVC041,0.00,VWS V14.01,2013-09-13 20:50:00,
2013-09-13 16:51:00,67.4,40.5,30.08,NNW,337,3.5,8.3,37,0.00,,CLR,0.00,VWS V14.01,2013-09-13 20:51:00,
2013-09-13 16:57:00,67.6,42.0,30.08,NNE,18,5.9,8.3,39,0.00,,CLR,0.00,VWS V14.01,2013-09-13 20:57:00,
2013-09-13 17:00:00,68.1,41.1,30.08,NNE,30,4.7,15.3,37,0.00,,OVC041,0.00,VWS V14.01,2013-09-13 21:00:00,
2013-09-13 17:02:00,67.8,41.5,30.08,NNE,14,4.7,8.3,38,0.00,,CLR,0.00,VWS V14.01,2013-09-13 21:02:00,
2013-09-13 17:07:00,67.9,41.0,30.08,NNW,346,10.6,10.6,37,0.00,,CLR,0.00,VWS V14.01,2013-09-13 21:07:00,
2013-09-13 17:10:00,68.3,41.3,30.08,North,9,5.9,14.2,37,0.00,,OVC041,0.00,VWS V14.01,2013-09-13 21:10:00,
2013-09-13 17:12:00,67.6,41.4,30.08,North,360,4.7,7.1,38,0.00,,CLR,0.00,VWS V14.01,2013-09-13 21:12:00,
2013-09-13 17:17:00,67.4,41.9,30.09,NE,39,7.1,9.4,39,0.00,,CLR,0.00,VWS V14.01,2013-09-13 21:17:00,
2013-09-13 17:20:00,68.6,40.1,30.08,NNW,327,5.9,10.6,35,0.00,,OVC041,0.00,VWS V14.01,2013-09-13 21:20:00,
2013-09-13 17:22:00,67.1,42.2,30.08,NNW,345,8.3,8.3,40,0.00,,CLR,0.00,VWS V14.01,2013-09-13 21:22:00,
2013-09-13 17:27:00,66.9,42.1,30.08,NNW,341,7.1,9.4,40,0.00,,CLR,0.00,VWS V14.01,2013-09-13 21:27:00,
2013-09-13 17:30:00,68.3,39.9,30.08,North,5,9.4,10.6,35,0.00,,OVC041,0.00,VWS V14.01,2013-09-13 21:30:00,
2013-09-13 17:32:00,66.9,42.7,30.08,North,5,8.3,13.0,41,0.00,,CLR,0.00,VWS V14.01,2013-09-13 21:32:00,
2013-09-13 17:37:00,66.6,42.5,30.08,North,355,7.1,13.0,41,0.00,,CLR,0.00,VWS V14.01,2013-09-13 21:37:00,
2013-09-13 17:40:00,67.9,40.2,30.08,North,9,9.4,14.2,36,0.00,,OVC041,0.00,VWS V14.01,2013-09-13 21:40:00,
2013-09-13 17:42:00,66.3,42.8,30.08,NE,52,4.7,4.7,42,0.00,,CLR,0.00,VWS V14.01,2013-09-13 21:42:00,
2013-09-13 17:47:00,66.3,42.8,30.08,North,355,7.1,8.3,42,0.00,,CLR,0.00,VWS V14.01,2013-09-13 21:47:00,
2013-09-13 17:50:00,67.6,40.7,30.08,NNE,13,4.7,13.0,37,0.00,,OVC041,0.00,VWS V14.01,2013-09-13 21:50:00,
2013-09-13 17:52:00,66.1,42.0,30.08,NNE,13,5.9,7.1,41,0.00,,CLR,0.00,VWS V14.01,2013-09-13 21:52:00,
2013-09-13 17:57:00,66.0,42.5,30.08,North,5,7.1,10.6,42,0.00,,CLR,0.00,VWS V14.01,2013-09-13 21:57:00,
2013-09-13 18:00:00,67.8,41.5,30.08,North,350,7.1,10.6,38,0.00,,OVC041,0.00,VWS V14.01,2013-09-13 22:00:00,
2013-09-13 18:02:00,65.5,41.5,30.09,NNW,346,8.3,10.6,41,0.00,,CLR,0.00,VWS V14.01,2013-09-13 22:02:00,
2013-09-13 18:08:00,65.3,42.5,30.09,NNE,28,3.5,10.6,43,0.00,,CLR,0.00,VWS V14.01,2013-09-13 22:08:00,
2013-09-13 18:10:00,67.8,41.5,30.08,NNE,26,7.1,10.6,38,0.00,,OVC041,0.00,VWS V14.01,2013-09-13 22:10:00,
2013-09-13 18:13:00,65.2,42.4,30.09,NE,34,2.4,7.1,43,0.00,,CLR,0.00,VWS V14.01,2013-09-13 22:13:00,
2013-09-13 18:18:00,65.2,41.8,30.09,NE,41,1.2,8.3,42,0.00,,CLR,0.00,VWS V14.01,2013-09-13 22:18:00,
2013-09-13 18:20:00,67.3,42.4,30.08,North,5,3.5,9.4,40,0.00,,OVC041,0.00,VWS V14.01,2013-09-13 22:20:00,
2013-09-13 18:23:00,65.0,41.6,30.09,NNE,24,5.9,7.1,42,0.00,,CLR,0.00,VWS V14.01,2013-09-13 22:23:00,
2013-09-13 18:28:00,64.8,41.5,30.09,NNE,17,4.7,7.1,42,0.00,,CLR,0.00,VWS V14.01,2013-09-13 22:28:00,
2013-09-13 18:30:00,66.9,42.1,30.08,NNW,342,5.9,9.4,40,0.00,,OVC041,0.00,VWS V14.01,2013-09-13 22:30:00,
2013-09-13 18:33:00,64.5,41.8,30.10,NNE,24,3.5,8.3,43,0.00,,CLR,0.00,VWS V14.01,2013-09-13 22:33:00,
2013-09-13 18:38:00,64.2,41.5,30.10,NE,36,3.5,8.3,43,0.00,,CLR,0.00,VWS V14.01,2013-09-13 22:38:00,
2013-09-13 18:40:00,66.4,42.3,30.08,NE,42,3.5,13.0,41,0.00,,OVC041,0.00,VWS V14.01,2013-09-13 22:40:00,
2013-09-13 18:43:00,63.9,41.2,30.10,NNE,13,5.9,7.1,43,0.00,,CLR,0.00,VWS V14.01,2013-09-13 22:43:00,
2013-09-13 18:48:00,63.2,41.2,30.10,North,5,2.4,7.1,44,0.00,,CLR,0.00,VWS V14.01,2013-09-13 22:48:00,
2013-09-13 18:50:00,66.3,42.8,30.08,NNE,29,1.2,8.3,42,0.00,,OVC041,0.00,VWS V14.01,2013-09-13 22:50:00,
2013-09-13 18:53:00,62.7,41.3,30.10,NE,39,1.2,7.1,45,0.00,,CLR,0.00,VWS V14.01,2013-09-13 22:53:00,
2013-09-13 18:58:00,62.1,41.3,30.10,NNE,26,1.2,7.1,46,0.00,,CLR,0.00,VWS V14.01,2013-09-13 22:58:00,
2013-09-13 19:00:00,65.8,41.7,30.09,NNE,12,8.3,10.6,41,0.00,,OVC041,0.00,VWS V14.01,2013-09-13 23:00:00,
2013-09-13 19:03:00,61.6,41.5,30.10,NNE,24,0.0,4.7,47,0.00,,CLR,0.00,VWS V14.01,2013-09-13 23:03:00,
2013-09-13 19:08:00,61.2,41.1,30.10,NNE,15,7.1,7.1,47,0.00,,CLR,0.00,VWS V14.01,2013-09-13 23:08:00,
2013-09-13 19:10:00,65.2,42.4,30.08,ENE,75,3.5,10.6,43,0.00,,OVC041,0.00,VWS V14.01,2013-09-13 23:10:00,
2013-09-13 19:13:00,60.7,41.2,30.10,NNE,15,1.2,3.5,48,0.00,,CLR,0.00,VWS V14.01,2013-09-13 23:13:00,
2013-09-13 19:18:00,60.4,40.9,30.10,NE,50,3.5,5.9,48,0.00,,CLR,0.00,VWS V14.01,2013-09-13 23:18:00,
2013-09-13 19:20:00,65.2,42.4,30.09,NNE,27,4.7,8.3,43,0.00,,OVC041,0.00,VWS V14.01,2013-09-13 23:20:00,
2013-09-13 19:23:00,60.1,41.2,30.10,North,9,1.2,4.7,49,0.00,,CLR,0.00,VWS V14.01,2013-09-13 23:23:00,
2013-09-13 19:28:00,59.8,42.4,30.10,North,355,5.9,7.1,53,0.00,,CLR,0.00,VWS V14.01,2013-09-13 23:28:00,
2013-09-13 19:30:00,64.7,41.4,30.09,NNE,27,4.7,7.1,42,0.00,,OVC041,0.00,VWS V14.01,2013-09-13 23:30:00,
2013-09-13 19:33:00,59.6,43.2,30.10,North,355,3.5,5.9,55,0.00,,CLR,0.00,VWS V14.01,2013-09-13 23:33:00,
2013-09-13 19:38:00,59.3,43.9,30.10,NNW,327,2.4,5.9,57,0.00,,CLR,0.00,VWS V14.01,2013-09-13 23:38:00,
2013-09-13 19:40:00,64.0,41.3,30.10,North,355,3.5,8.3,43,0.00,,OVC041,0.00,VWS V14.01,2013-09-13 23:40:00,
2013-09-13 19:43:00,58.9,44.0,30.11,North,350,3.5,5.9,58,0.00,,CLR,0.00,VWS V14.01,2013-09-13 23:43:00,
2013-09-13 19:48:00,58.6,43.7,30.11,North,350,3.5,5.9,58,0.00,,CLR,0.00,VWS V14.01,2013-09-13 23:48:00,
2013-09-13 19:50:00,63.1,41.7,30.10,North,5,0.0,7.1,45,0.00,,OVC041,0.00,VWS V14.01,2013-09-13 23:50:00,
2013-09-13 19:53:00,58.1,43.7,30.11,North,350,0.0,4.7,59,0.00,,CLR,0.00,VWS V14.01,2013-09-13 23:53:00,
2013-09-13 19:58:00,57.8,43.8,30.11,North,350,3.5,5.9,60,0.00,,CLR,0.00,VWS V14.01,2013-09-13 23:58:00,
2013-09-13 20:00:00,62.0,41.3,30.10,North,5,4.7,7.1,46,0.00,,OVC041,0.00,VWS V14.01,2013-09-14 00:00:00,
2013-09-13 20:03:00,57.3,43.4,30.11,North,350,1.2,5.9,60,0.00,,CLR,0.00,VWS V14.01,2013-09-14 00:03:00,
2013-09-13 20:08:00,57.0,43.5,30.11,North,350,3.5,5.9,61,0.00,,CLR,0.00,VWS V14.01,2013-09-14 00:08:00,
2013-09-13 20:10:00,61.0,40.9,30.10,NNE,15,2.4,7.1,47,0.00,,OVC041,0.00,VWS V14.01,2013-09-14 00:10:00,
2013-09-13 20:13:00,56.7,43.7,30.11,North,355,3.5,5.9,62,0.00,,CLR,0.00,VWS V14.01,2013-09-14 00:13:00,
2013-09-13 20:18:00,56.5,43.9,30.11,North,355,0.0,5.9,63,0.00,,CLR,0.00,VWS V14.01,2013-09-14 00:18:00,
2013-09-13 20:20:00,60.2,40.7,30.10,NNE,13,4.7,7.1,48,0.00,,OVC041,0.00,VWS V14.01,2013-09-14 00:20:00,
2013-09-13 20:23:00,56.2,44.0,30.12,North,355,3.5,4.7,64,0.00,,CLR,0.00,VWS V14.01,2013-09-14 00:23:00,
2013-09-13 20:28:00,55.9,44.2,30.12,North,355,3.5,4.7,65,0.00,,CLR,0.00,VWS V14.01,2013-09-14 00:28:00,
2013-09-13 20:30:00,59.8,42.9,30.10,NNW,348,3.5,7.1,54,0.00,,OVC041,0.00,VWS V14.01,2013-09-14 00:30:00,
2013-09-13 20:33:00,55.6,44.3,30.12,North,355,3.5,4.7,66,0.00,,CLR,0.00,VWS V14.01,2013-09-14 00:33:00,
2013-09-13 20:38:00,55.3,44.0,30.12,North,355,2.4,4.7,66,0.00,,CLR,0.00,VWS V14.01,2013-09-14 00:38:00,
2013-09-13 20:40:00,59.2,43.8,30.10,NNE,17,1.2,5.9,57,0.00,,OVC041,0.00,VWS V14.01,2013-09-14 00:40:00,
2013-09-13 20:43:00,55.0,44.1,30.13,North,355,1.2,2.4,67,0.00,,CLR,0.00,VWS V14.01,2013-09-14 00:43:00,
2013-09-13 20:48:00,54.8,44.3,30.13,North,355,3.5,3.5,68,0.00,,CLR,0.00,VWS V14.01,2013-09-14 00:48:00,
2013-09-13 20:50:00,58.4,43.5,30.11,North,350,2.4,5.9,58,0.00,,OVC041,0.00,VWS V14.01,2013-09-14 00:50:00,
2013-09-13 20:53:00,54.5,44.4,30.13,North,355,0.0,3.5,69,0.00,,CLR,0.00,VWS V14.01,2013-09-14 00:53:00,
2013-09-13 20:58:00,54.2,44.1,30.13,North,355,1.2,3.5,69,0.00,,CLR,0.00,VWS V14.01,2013-09-14 00:58:00,
2013-09-13 21:00:00,57.6,43.7,30.11,North,350,3.5,5.9,60,0.00,,OVC041,0.00,VWS V14.01,2013-09-14 01:00:00,
2013-09-13 21:03:00,53.9,44.2,30.13,North,355,0.0,2.4,70,0.00,,CLR,0.00,VWS V14.01,2013-09-14 01:03:00,
2013-09-13 21:08:00,53.6,44.0,30.14,North,355,0.0,2.4,70,0.00,,CLR,0.00,VWS V14.01,2013-09-14 01:08:00,
2013-09-13 21:10:00,56.9,43.4,30.11,North,355,5.9,5.9,61,0.00,,OVC041,0.00,VWS V14.01,2013-09-14 01:10:00,
2013-09-13 21:13:00,53.5,44.2,30.14,North,355,2.4,3.5,71,0.00,,CLR,0.00,VWS V14.01,2013-09-14 01:13:00,
2013-09-13 21:18:00,53.2,44.3,30.14,North,355,2.4,3.5,72,0.00,,CLR,0.00,VWS V14.01,2013-09-14 01:18:00,
2013-09-13 21:20:00,56.3,43.7,30.12,North,355,1.2,5.9,63,0.00,,OVC041,0.00,VWS V14.01,2013-09-14 01:20:00,
2013-09-13 21:23:00,53.1,44.2,30.14,North,355,1.2,3.5,72,0.00,,CLR,0.00,VWS V14.01,2013-09-14 01:23:00,
2013-09-13 21:28:00,52.8,44.3,30.14,North,355,0.0,3.5,73,0.00,,CLR,0.00,VWS V14.01,2013-09-14 01:28:00,
2013-09-13 21:30:00,55.7,44.0,30.12,North,355,2.4,4.7,65,0.00,,OVC041,0.00,VWS V14.01,2013-09-14 01:30:00,
2013-09-13 21:33:00,52.6,44.5,30.14,North,355,0.0,1.2,74,0.00,,CLR,0.00,VWS V14.01,2013-09-14 01:33:00,
2013-09-13 21:38:00,52.5,44.4,30.14,North,355,0.0,1.2,74,0.00,,CLR,0.00,VWS V14.01,2013-09-14 01:38:00,
2013-09-13 21:40:00,55.3,44.4,30.13,North,355,1.2,4.7,67,0.00,,OVC041,0.00,VWS V14.01,2013-09-14 01:40:00,
2013-09-13 21:43:00,52.2,44.1,30.14,North,355,0.0,0.0,74,0.00,,CLR,0.00,VWS V14.01,2013-09-14 01:43:00,
2013-09-13 21:48:00,52.0,43.9,30.14,North,355,0.0,0.0,74,0.00,,CLR,0.00,VWS V14.01,2013-09-14 01:48:00,
2013-09-13 21:50:00,54.7,44.2,30.13,North,355,1.2,4.7,68,0.00,,OVC041,0.00,VWS V14.01,2013-09-14 01:50:00,
2013-09-13 21:53:00,51.7,44.0,30.14,North,355,0.0,1.2,75,0.00,,CLR,0.00,VWS V14.01,2013-09-14 01:53:00,
2013-09-13 21:58:00,51.4,43.7,30.14,North,355,0.0,1.2,75,0.00,,CLR,0.00,VWS V14.01,2013-09-14 01:58:00,
2013-09-13 22:00:00,54.1,44.0,30.13,North,355,2.4,3.5,69,0.00,,OVC041,0.00,VWS V14.01,2013-09-14 02:00:00,
2013-09-13 22:03:00,51.1,43.4,30.14,North,355,0.0,0.0,75,0.00,,CLR,0.00,VWS V14.01,2013-09-14 02:03:00,
2013-09-13 22:08:00,50.8,43.1,30.14,North,355,0.0,1.2,75,0.00,,CLR,0.00,VWS V14.01,2013-09-14 02:08:00,
2013-09-13 22:10:00,53.6,44.3,30.14,North,355,0.0,2.4,71,0.00,,OVC041,0.00,VWS V14.01,2013-09-14 02:10:00,
2013-09-13 22:13:00,50.7,43.0,30.14,North,355,0.0,0.0,75,0.00,,CLR,0.00,VWS V14.01,2013-09-14 02:13:00,
2013-09-13 22:18:00,50.4,42.7,30.14,North,355,0.0,0.0,75,0.00,,CLR,0.00,VWS V14.01,2013-09-14 02:18:00,
2013-09-13 22:20:00,53.2,44.3,30.14,North,355,0.0,3.5,72,0.00,,OVC041,0.00,VWS V14.01,2013-09-14 02:20:00,
2013-09-13 22:23:00,50.1,42.8,30.14,North,355,0.0,0.0,76,0.00,,CLR,0.00,VWS V14.01,2013-09-14 02:23:00,
2013-09-13 22:28:00,49.9,42.6,30.14,North,355,0.0,0.0,76,0.00,,CLR,0.00,VWS V14.01,2013-09-14 02:28:00,
2013-09-13 22:30:00,52.8,44.3,30.14,North,355,0.0,3.5,73,0.00,,OVC041,0.00,VWS V14.01,2013-09-14 02:30:00,
2013-09-13 22:33:00,49.6,42.3,30.14,North,355,0.0,0.0,76,0.00,,CLR,0.00,VWS V14.01,2013-09-14 02:33:00,
2013-09-13 22:38:00,49.4,42.1,30.14,North,355,0.0,0.0,76,0.00,,CLR,0.00,VWS V14.01,2013-09-14 02:38:00,
2013-09-13 22:40:00,52.3,44.2,30.14,North,355,0.0,1.2,74,0.00,,OVC041,0.00,VWS V14.01,2013-09-14 02:40:00,
2013-09-13 22:43:00,49.1,42.1,30.14,North,355,0.0,0.0,77,0.00,,CLR,0.00,VWS V14.01,2013-09-14 02:43:00,
2013-09-13 22:48:00,48.8,41.8,30.14,North,355,0.0,0.0,77,0.00,,CLR,0.00,VWS V14.01,2013-09-14 02:48:00,
2013-09-13 22:50:00,51.9,43.8,30.14,North,355,1.2,1.2,74,0.00,,OVC041,0.00,VWS V14.01,2013-09-14 02:50:00,
2013-09-13 22:53:00,48.6,41.7,30.14,North,355,0.0,0.0,77,0.00,,CLR,0.00,VWS V14.01,2013-09-14 02:53:00,
2013-09-13 22:58:00,48.3,41.4,30.14,North,355,0.0,0.0,77,0.00,,CLR,0.00,VWS V14.01,2013-09-14 02:58:00,
2013-09-13 23:00:00,51.3,43.6,30.14,North,355,0.0,1.2,75,0.00,,OVC041,0.00,VWS V14.01,2013-09-14 03:00:00,
2013-09-13 23:03:00,48.0,41.1,30.14,North,355,0.0,0.0,77,0.00,,CLR,0.00,VWS V14.01,2013-09-14 03:03:00,
2013-09-13 23:08:00,47.7,40.8,30.14,North,355,0.0,0.0,77,0.00,,CLR,0.00,VWS V14.01,2013-09-14 03:08:00,
2013-09-13 23:10:00,50.8,43.1,30.14,North,355,0.0,1.2,75,0.00,,OVC041,0.00,VWS V14.01,2013-09-14 03:10:00,
2013-09-13 23:13:00,47.4,40.5,30.14,North,355,0.0,0.0,77,0.00,,CLR,0.00,VWS V14.01,2013-09-14 03:13:00,
2013-09-13 23:18:00,47.1,40.2,30.14,North,355,0.0,0.0,77,0.00,,CLR,0.00,VWS V14.01,2013-09-14 03:18:00,
2013-09-13 23:20:00,50.2,42.8,30.14,North,355,0.0,0.0,76,0.00,,OVC041,0.00,VWS V14.01,2013-09-14 03:20:00,
2013-09-13 23:23:00,47.0,40.1,30.14,North,355,0.0,0.0,77,0.00,,CLR,0.00,VWS V14.01,2013-09-14 03:23:00,
2013-09-13 23:28:00,46.7,40.1,30.14,North,355,0.0,0.0,78,0.00,,CLR,0.00,VWS V14.01,2013-09-14 03:28:00,
2013-09-13 23:30:00,49.8,42.5,30.14,North,355,0.0,0.0,76,0.00,,OVC041,0.00,VWS V14.01,2013-09-14 03:30:00,
2013-09-13 23:33:00,46.4,39.8,30.14,North,355,0.0,0.0,78,0.00,,CLR,0.00,VWS V14.01,2013-09-14 03:33:00,
2013-09-13 23:38:00,46.1,39.6,30.14,North,355,0.0,0.0,78,0.00,,CLR,0.00,VWS V14.01,2013-09-14 03:38:00,
2013-09-13 23:40:00,49.2,41.9,30.14,North,355,0.0,0.0,76,0.00,,OVC041,0.00,VWS V14.01,2013-09-14 03:40:00,
2013-09-13 23:43:00,46.0,39.8,30.14,North,355,0.0,0.0,79,0.00,,CLR,0.00,VWS V14.01,2013-09-14 03:43:00,
2013-09-13 23:48:00,45.8,39.6,30.14,North,355,0.0,0.0,79,0.00,,CLR,0.00,VWS V14.01,2013-09-14 03:48:00,
2013-09-13 23:50:00,48.8,41.8,30.14,North,355,0.0,0.0,77,0.00,,OVC041,0.00,VWS V14.01,2013-09-14 03:50:00,
2013-09-13 23:53:00,45.5,39.3,30.14,North,355,0.0,0.0,79,0.00,,CLR,0.00,VWS V14.01,2013-09-14 03:53:00,
2013-09-13 23:58:00,45.4,39.2,30.14,North,355,0.0,0.0,79,0.00,,CLR,0.00,VWS V14.01,2013-09-14 03:58:00,